Total_Precipitation_Accumulation
0.05 0.07 0.13 0.13 0.13 0.15 0.17 0.20 0.26 0.30 0.24 0.26 0.45 0.66 0.73 0.90 1.21 1.52 1.88 2.13 2.48 2.83 3.18 3.62 3.71 3.95 4.26 4.88 5.40 5.69 5.78 5.75 5.55 5.29 4.95 4.78 4.78 4.74 4.46 4.22 4.07 3.96 3.84 3.87
0.10 0.09 0.07 0.08 0.11 0.12 0.16 0.22 0.26 0.29 0.24 0.25 0.47 0.71 0.86 1.13 1.46 1.51 1.70 1.87 2.08 2.49 2.82 3.17 3.37 3.46 3.88 4.50 4.96 5.17 5.00 5.02 4.91 4.73 4.69 4.69 4.97 4.66 4.35 4.17 4.04 3.73 3.72 3.81
0.11 0.10 0.06 0.06 0.07 0.10 0.13 0.16 0.20 0.28 0.27 0.34 0.54 0.98 1.14 1.30 1.43 1.45 1.54 1.73 1.85 2.12 2.43 2.77 2.90 3.07 3.32 3.44 3.72 3.94 4.17 4.21 4.16 4.19 4.17 4.28 4.54 4.39 4.27 4.14 4.03 3.61 3.42 3.41
0.07 0.06 0.07 0.08 0.08 0.10 0.13 0.12 0.13 0.19 0.31 0.51 0.67 1.33 1.53 1.43 1.47 1.56 1.54 1.51 1.75 2.06 2.09 2.20 2.43 2.60 2.89 3.08 3.30 3.39 3.50 3.68 3.77 3.91 3.83 3.72 3.64 3.66 3.68 3.76 3.69 3.65 3.48 3.37
0.08 0.07 0.07 0.09 0.09 0.08 0.09 0.10 0.12 0.23 0.38 0.52 0.64 1.06 1.51 1.73 1.78 1.55 1.46 1.34 1.53 1.70 1.65 1.61 1.80 1.98 2.24 2.52 2.76 2.93 3.06 3.23 3.53 3.69 3.65 3.65 3.42 3.39 3.44 3.51 3.55 3.54 3.46 3.35
0.07 0.07 0.06 0.07 0.06 0.07 0.08 0.13 0.22 0.41 0.62 0.90 0.76 0.93 1.44 1.73 1.94 1.68 1.40 1.29 1.39 1.36 1.34 1.47 1.65 1.77 1.93 2.25 2.44 2.58 2.72 2.84 3.09 3.30 3.44 3.55 3.46 3.34 3.30 3.30 3.31 3.29 3.30 3.18
0.14 0.13 0.11 0.07 0.07 0.09 0.09 0.22 0.68 1.13 1.42 1.38 0.90 0.94 1.35 1.33 1.33 1.40 1.32 1.30 1.33 1.25 1.21 1.25 1.36 1.51 1.70 1.96 2.14 2.22 2.36 2.47 2.54 2.68 2.92 3.14 3.18 3.16 2.98 2.88 2.91 2.91 2.72 2.66
0.19 0.26 0.16 0.10 0.10 0.11 0.14 0.23 0.75 1.16 1.20 1.17 0.99 1.27 1.66 1.32 1.21 1.14 1.19 1.28 1.26 1.13 1.12 1.19 1.26 1.30 1.41 1.63 1.89 1.97 2.09 2.20 2.36 2.43 2.58 2.76 2.81 2.77 2.57 2.66 2.65 2.57 2.32 2.25
0.13 0.14 0.10 0.09 0.10 0.15 0.21 0.23 0.33 0.63 0.73 0.90 1.09 1.42 1.65 1.30 1.22 1.32 1.41 1.39 1.33 1.08 0.97 1.01 1.00 1.03 1.09 1.22 1.42 1.56 1.80 1.97 2.13 2.28 2.39 2.42 2.38 2.45 2.42 2.51 2.64 2.46 2.41 2.26
0.09 0.09 0.09 0.10 0.11 0.15 0.19 0.21 0.28 0.56 0.82 1.00 1.09 1.50 1.84 1.73 1.52 1.42 1.48 1.34 1.08 0.92 0.84 0.79 0.77 0.79 0.88 1.01 1.17 1.39 1.56 1.61 1.75 2.02 2.16 2.06 2.31 2.40 2.39 2.41 2.34 2.31 2.35 2.32
0.08 0.07 0.09 0.12 0.14 0.17 0.22 0.26 0.36 0.54 0.61 0.87 1.26 1.49 1.42 1.41 1.30 1.34 1.31 1.14 0.93 0.83 0.81 0.77 0.76 0.79 0.83 0.89 1.10 1.34 1.58 1.72 1.72 1.82 2.00 2.13 2.23 2.33 2.35 2.26 2.13 2.18 2.26 2.28
0.09 0.09 0.13 0.19 0.21 0.20 0.20 0.23 0.34 0.54 0.53 0.59 0.91 1.21 0.84 0.86 0.87 0.95 1.00 0.88 0.83 0.82 0.78 0.83 0.87 0.84 0.85 0.96 1.14 1.34 1.53 1.72 1.81 1.99 2.26 2.40 2.29 2.25 2.28 2.21 2.08 2.00 1.97 2.05
0.13 0.14 0.22 0.44 0.54 0.34 0.22 0.21 0.24 0.31 0.35 0.42 0.77 1.00 0.65 0.73 0.85 0.94 1.01 1.02 1.01 0.95 0.81 0.83 1.02 1.06 0.98 1.06 1.28 1.54 1.72 1.87 2.02 2.19 2.41 2.50 2.34 2.23 2.24 2.16 1.98 1.86 1.79 1.84
0.14 0.17 0.25 0.53 0.61 0.48 0.35 0.27 0.24 0.28 0.37 0.36 0.45 0.69 0.66 0.73 0.90 1.00 1.03 1.05 0.98 0.91 0.90 0.95 1.04 1.05 1.18 1.26 1.41 1.63 1.70 1.88 1.97 1.96 2.13 2.29 2.21 2.05 1.95 1.94 1.90 1.88 1.88 1.85
0.11 0.14 0.16 0.22 0.29 0.36 0.37 0.31 0.25 0.22 0.26 0.39 0.41 0.50 0.62 0.75 0.78 0.98 1.03 0.97 0.97 0.94 0.96 1.03 1.14 1.09 1.09 1.17 1.19 1.30 1.35 1.55 1.56 1.62 1.71 1.81 1.77 1.77 1.73 1.69 1.65 1.71 1.76 1.73
0.22 0.22 0.20 0.20 0.23 0.26 0.29 0.31 0.24 0.18 0.17 0.20 0.34 0.59 0.62 0.67 0.73 0.89 0.90 0.88 0.95 1.08 1.08 1.10 1.17 1.27 1.15 1.09 1.05 1.01 1.10 1.29 1.47 1.59 1.52 1.54 1.61 1.54 1.50 1.53 1.54 1.59 1.66 1.79
0.40 0.37 0.34 0.30 0.26 0.32 0.38 0.31 0.26 0.19 0.18 0.19 0.39 0.67 0.67 0.73 0.83 0.95 1.00 1.00 0.93 0.95 1.02 1.13 1.22 1.24 1.06 1.03 1.01 1.05 1.08 1.20 1.34 1.45 1.53 1.61 1.66 1.61 1.55 1.60 1.72 1.73 1.87 1.95
0.47 0.52 0.47 0.41 0.49 0.64 0.44 0.31 0.29 0.32 0.29 0.29 0.36 0.46 0.55 0.71 0.78 0.82 0.88 1.03 1.08 1.08 1.18 1.23 1.21 1.19 1.15 1.09 1.11 1.12 1.11 1.20 1.34 1.39 1.51 1.64 1.68 1.64 1.66 1.66 1.68 1.81 2.01 2.09
0.38 0.55 0.58 0.56 0.66 0.58 0.49 0.42 0.40 0.48 0.54 0.46 0.55 0.53 0.59 0.69 0.77 0.95 0.86 0.92 0.92 1.09 1.16 1.20 1.23 1.23 1.25 1.22 1.30 1.30 1.24 1.31 1.46 1.59 1.68 1.67 1.73 1.78 1.84 1.89 1.94 2.04 2.12 2.14
0.48 0.62 0.77 0.71 0.85 0.88 0.77 0.66 0.57 0.61 0.98 0.74 0.71 0.74 0.83 0.89 1.07 1.30 1.11 0.99 1.02 1.11 1.09 1.13 1.13 1.19 1.27 1.27 1.42 1.53 1.55 1.55 1.63 1.80 1.94 1.96 2.08 2.20 2.21 2.33 2.45 2.47 2.45 2.38
1.00 1.00 0.92 0.93 1.04 1.06 0.83 0.72 0.70 1.20 1.44 0.93 0.84 0.88 0.89 0.97 1.09 1.15 1.20 1.21 1.15 0.99 0.94 0.99 1.07 1.07 1.18 1.38 1.59 1.76 1.79 1.74 1.83 1.98 2.16 2.34 2.46 2.68 2.84 2.94 2.87 2.78 2.77 2.74
1.17 1.28 1.26 1.28 1.48 1.42 0.89 0.83 1.20 1.52 1.21 1.20 1.05 0.98 0.99 0.94 1.02 1.12 1.19 1.22 1.06 1.01 0.98 1.02 1.13 1.15 1.20 1.41 1.62 1.81 1.88 1.92 2.11 2.26 2.45 2.58 2.79 2.90 3.03 3.43 3.47 3.45 3.36 3.07
1.32 1.40 1.41 1.46 1.57 1.30 1.11 1.27 1.38 1.38 1.36 1.42 1.43 1.25 1.16 1.08 1.10 1.16 1.13 1.08 1.01 1.02 0.99 1.03 1.19 1.32 1.36 1.49 1.74 2.01 2.08 2.14 2.27 2.42 2.65 2.81 2.89 3.04 3.19 3.36 3.37 3.36 3.30 3.03
1.50 1.27 1.45 1.62 1.69 1.49 1.42 1.41 1.46 1.49 1.42 1.39 1.48 1.62 1.60 1.35 1.22 1.24 1.20 1.12 1.13 1.19 1.14 1.17 1.29 1.45 1.63 1.75 1.95 2.20 2.27 2.39 2.47 2.54 2.67 2.77 2.88 3.01 3.21 3.36 3.31 3.24 3.17 3.12
1.52 1.57 1.79 2.07 2.02 1.83 1.67 1.69 1.79 1.69 1.58 1.61 1.62 1.68 1.77 1.47 1.24 1.20 1.30 1.28 1.29 1.40 1.43 1.42 1.49 1.62 1.84 1.97 2.13 2.21 2.27 2.47 2.65 2.64 2.69 2.80 2.82 2.87 3.01 3.10 3.21 3.13 3.05 3.08
1.54 1.79 2.13 2.37 2.14 2.19 2.01 1.70 1.76 1.87 1.74 1.75 1.72 1.67 1.56 1.45 1.39 1.41 1.45 1.43 1.44 1.55 1.59 1.60 1.60 1.73 1.92 2.10 2.28 2.36 2.47 2.62 2.77 2.83 2.75 2.79 2.83 2.84 2.85 2.83 2.73 2.74 2.68 2.66